User: anonymous   Login
Location: Freistadt
(48.5112°N, 14.5013°E)
Time: 08:57:50
(UTC+01:00)
Language:

COSMOS 2251 DEB - Orbit

View from above orbital plane
View from above orbital plane
View from above satellite
View from above satellite

Ground track
Ground track

The orbit data is extracted from the following two-line orbital elements,

1 34331U 93036PD  23335.57537837  .00050477  00000-0  76631-2 0  9994
2 34331  74.0271  46.8616 0028690 178.2256 181.9024 14.73510342779383
Epoch (UTC): 01 December 2023 13:48:32
Eccentricity: 0.0028690
inclination: 74.0271°
perigee height: 630 km
apogee height: 670 km
right ascension of ascending node: 46.8616°
argument of perigee: 178.2256°
revolutions per day: 14.73510342
mean anomaly at epoch: 181.9024°
orbit number at epoch: 77938

The dashed part of the orbit path shows where the satellite is in the earth's shadow,  

DLR